Flag for United Kingdom Weather past 2 weeks in Oldham, England, United Kingdom

Now
30 °F

Clear.


Feels Like: 25 °F
Forecast: N/A
Wind: 5 mph from Northwest

Location: Manchester Airport

Current Time: Feb 1, 2015 at 11:40:58 PM

Latest Report: Feb 1, 2015 at 11:20 PM


Visibility: 10 mi

Pressure: 29.68 "Hg

Humidity: 69%

Dew point: 21 °F

Location of OldhamLocation

Historic Weather in Oldham — Graph

°F

Oldham temperature yesterday

Maximum temperature yesterday: 41 °F (at 11:20 AM)
Minimum temperature yesterday: 34 °F (at 12:20 AM)
Average temperature yesterday: 38 °F

Past Weeks' High & Low Weather Summary

 TemperatureHumidityPressure
High48 °F (Jan 25, 1:20 PM)100% (Jan 17, 10:50 PM)30.42 "Hg (Jan 17, 10:50 PM)
Low23 °F (Jan 19, 4:50 AM)52% (Feb 1, 3:20 PM)28.77 "Hg (Jan 29, 11:50 PM)
Average37 °F85%29.78 "Hg
* Reported Jan 17 10:20 PM — Feb 1 10:20 PM, Oldham, Weather by CustomWeather, © 2014

Note: Actual official high and low records may vary slightly from our data, if they occured in-between our weather recording intervals... More about our weather records

Advertising

Oldham weather history for previous 24 hours

 ConditionsComfort  
Time TempWeatherWind HumidityBarometerVisibility
10:20 PM
Feb 1
25 °FClear.2 mph80%29.68 "Hg10 mi
9:50 PM30 °FClear.3 mph69%29.68 "Hg10 mi
9:20 PM30 °FClear.2 mph64%29.71 "Hg10 mi
8:50 PM30 °FClear.2 mph64%29.71 "Hg10 mi
8:20 PM30 °FPassing clouds.5 mph69%29.71 "HgN/A
7:50 PM32 °FPassing clouds.6 mph64%29.71 "HgN/A
7:20 PM32 °FPassing clouds.5 mph64%29.71 "HgN/A
6:50 PM32 °FPassing clouds.7 mph69%29.68 "HgN/A
6:20 PM34 °FPassing clouds.6 mph60%29.68 "HgN/A
5:50 PM34 °FPassing clouds.9 mph60%29.68 "HgN/A
5:20 PM36 °FPassing clouds.8 mph56%29.68 "HgN/A
4:50 PM36 °FPassing clouds.8 mph56%29.65 "HgN/A
4:20 PM36 °FSunny.12 mph56%29.65 "Hg10 mi
3:50 PM37 °FScattered clouds.10 mph52%29.65 "HgN/A
3:20 PM37 °FScattered clouds.12 mph52%29.65 "HgN/A
2:50 PM37 °FPassing clouds.14 mph56%29.65 "HgN/A
2:20 PM39 °FPassing clouds.14 mph56%29.65 "HgN/A
1:50 PM39 °FSunny.14 mph56%29.65 "Hg10 mi
1:20 PM39 °FPassing clouds.13 mph56%29.62 "HgN/A
12:50 PM37 °FSunny.14 mph60%29.62 "Hg10 mi
12:20 PM37 °FPassing clouds.16 mph60%29.62 "HgN/A
11:50 AM39 °FPassing clouds.18 mph61%29.62 "HgN/A
11:20 AM37 °FPassing clouds.18 mph65%29.62 "HgN/A
10:50 AM36 °FPartly sunny.17 mph70%29.59 "HgN/A
10:20 AM36 °FPartly sunny.16 mph70%29.59 "HgN/A
9:50 AM36 °FPartly sunny.14 mph70%29.59 "HgN/A
9:20 AM36 °FScattered clouds.12 mph70%29.59 "HgN/A
8:50 AM36 °FPassing clouds.16 mph70%29.56 "HgN/A
8:20 AM36 °FPassing clouds.15 mph70%29.56 "HgN/A
7:50 AM36 °FPartly cloudy.14 mph70%29.53 "HgN/A
7:20 AM36 °FOvercast.13 mph70%29.53 "HgN/A
6:50 AM36 °FPassing clouds.15 mph70%29.50 "HgN/A
6:20 AM36 °FPassing clouds.13 mph75%29.50 "HgN/A
5:50 AM36 °FPassing clouds.14 mph75%29.47 "HgN/A
5:20 AM36 °FPassing clouds.14 mph75%29.47 "HgN/A
4:50 AM37 °FOvercast.17 mph70%29.47 "HgN/A
4:20 AM37 °FPassing clouds.17 mph65%29.45 "HgN/A
3:50 AM37 °FPassing clouds.17 mph65%29.45 "HgN/A
3:20 AM37 °FPassing clouds.20 mph65%29.42 "HgN/A
2:50 AM37 °FMostly cloudy.16 mph65%29.42 "HgN/A
2:20 AM37 °FMostly cloudy.16 mph65%29.42 "HgN/A
1:50 AM37 °FOvercast.16 mph65%29.42 "HgN/A
1:20 AM37 °FMostly cloudy.17 mph65%29.39 "HgN/A
12:50 AM37 °FOvercast.21 mph65%29.39 "HgN/A
12:20 AM37 °FPassing clouds.17 mph65%29.39 "HgN/A
11:50 PM
Jan 31
37 °FPassing clouds.16 mph65%29.39 "HgN/A
11:20 PM37 °FPassing clouds.17 mph65%29.39 "HgN/A
Weather by CustomWeather, © 2014

See weather overviewHow to use our weather pages